User: anonymous   Login
Location: Gisborne
(38.6530°S, 178.0040°E)
Time: 15:38:18
(UTC+13:00)
Language:

Helios 1B rocket - Orbit

View from above orbital plane
View from above orbital plane
View from above satellite
View from above satellite

Ground track
Ground track

The orbit data is extracted from the following two-line orbital elements,

1 25979U 99064C   19081.17541065  .00000560  00000-0  56014-4 0  9999
2 25979  98.1704 335.8879 0006315   3.5642 356.5622 14.95686829 46288
Epoch (UTC): 22 March 2019 04:12:35
Eccentricity: 0.0006315
inclination: 98.1704°
perigee height: 576 km
apogee height: 584 km
right ascension of ascending node: 335.8879°
argument of perigee: 3.5642°
revolutions per day: 14.95686829
mean anomaly at epoch: 356.5622°
orbit number at epoch: 4628

The dashed part of the orbit path shows where the satellite is in the earth's shadow,  

DLR